KB2SKP Weather Reports


Display with metric or nautical units.
time (UTC)temp
F
wind
direction
speed
MPH
gust
MPH
rain 1hr
in
rain 24hr
in
rain mn
in
humidity
%
barometer
mb
20200707025301 74 156 1.0 1.0 0.00 0.00 0.00 91 1028.8
20200707024800 74 193 3.0 5.0 0.00 0.00 0.00 91 1028.8
20200707024256 74 159 2.0 7.0 0.00 0.00 0.00 91 1028.5
20200707023755 73 145 2.0 7.0 0.00 0.00 0.00 91 1028.5
20200707023246 73 138 1.0 7.0 0.00 0.00 0.00 90 1028.8
20200707022741 73 143 4.0 10.0 0.00 0.00 0.00 89 1028.8
20200707022240 74 53 2.0 11.0 0.00 0.00 0.00 88 1028.8
20200707021738 74 156 3.0 5.0 0.00 0.00 0.00 89 1029.1
20200707021234 75 171 4.0 8.0 0.00 0.00 0.00 89 1028.5
20200707020731 75 149 1.0 5.0 0.00 0.00 0.00 88 1028.1
20200707020228 75 193 1.0 17.0 0.00 0.00 0.00 88 1027.8
20200707015724 75 137 3.0 5.0 0.00 0.00 0.00 87 1027.8
20200707015220 75 133 5.0 13.0 0.00 0.00 0.00 86 1027.8
20200707014718 78 166 3.0 9.0 0.00 0.00 0.00 82 1028.1
20200707014214 83 284 0.0 2.0 0.00 0.00 0.00 82 1028.1
20200707013714 83 234 0.0 1.0 0.00 0.00 0.00 82 1027.8
20200707013212 84 220 0.0 1.0 0.00 0.00 0.00 81 1027.4
20200707012711 84 184 1.0 2.0 0.00 0.00 0.00 81 1027.1
20200707012210 84 225 0.0 0.0 0.00 0.00 0.00 80 1027.1
20200707011705 84 216 1.0 1.0 0.00 0.00 0.00 80 1027.1
20200707011203 84 227 0.0 1.0 0.00 0.00 0.00 80 1027.1
20200707010658 84 229 0.0 1.0 0.00 0.00 0.00 80 1026.8
20200707010154 84 236 0.0 0.0 0.00 0.00 0.00 79 1026.8
20200707005649 84 223 0.0 2.0 0.00 0.00 0.00 79 1027.1
20200707005146 85 219 1.0 2.0 0.00 0.00 0.00 78 1026.8
20200707004642 85 211 0.0 1.0 0.00 0.00 0.00 77 1026.8
20200707004140 85 232 1.0 2.0 0.00 0.00 0.00 77 1026.8
20200707003639 85 229 1.0 2.0 0.00 0.00 0.00 77 1026.1
20200707003134 86 231 0.0 1.0 0.00 0.00 0.00 75 1026.4
20200707002629 86 208 0.0 2.0 0.00 0.00 0.00 74 1026.1
20200707002124 86 225 0.0 1.0 0.00 0.00 0.00 69 1026.1
20200707001622 86 221 0.0 0.0 0.00 0.00 0.00 68 1026.1
20200707001116 86 229 0.0 0.0 0.00 0.00 0.00 68 1026.4
20200707000615 87 221 0.0 0.0 0.00 0.00 0.00 68 1026.1
20200707000113 87 229 0.0 1.0 0.00 0.00 0.00 67 1026.1
20200706235612 87 212 0.0 0.0 0.00 0.00 0.00 67 1026.4
20200706235111 87 227 0.0 1.0 0.00 0.00 0.00 67 1026.4
20200706234611 87 216 0.0 1.0 0.00 0.00 0.00 67 1026.1
20200706234110 87 217 0.0 0.0 0.00 0.00 0.00 66 1026.1
20200706233608 88 230 0.0 1.0 0.00 0.00 0.00 65 1026.1
20200706233107 88 232 0.0 1.0 0.00 0.00 0.00 66 1025.7
20200706232605 88 241 0.0 3.0 0.00 0.00 0.00 66 1025.7
20200706232101 88 226 0.0 3.0 0.00 0.00 0.00 65 1025.4
20200706231557 89 227 0.0 1.0 0.00 0.00 0.00 64 1025.4
20200706231053 89 220 0.0 1.0 0.00 0.00 0.00 64 1025.4
20200706230551 89 221 1.0 1.0 0.00 0.00 0.00 64 1025.7
20200706230050 89 232 0.0 1.0 0.00 0.00 0.00 64 1025.7
20200706225542 89 223 0.0 3.0 0.00 0.00 0.00 63 1025.7
20200706225040 90 219 0.0 2.0 0.00 0.00 0.00 62 1026.1
20200706224535 91 234 0.0 3.0 0.00 0.00 0.00 61 1025.7
20200706224034 92 238 0.0 1.0 0.00 0.00 0.00 61 1025.7
20200706223533 92 233 1.0 5.0 0.00 0.00 0.00 60 1026.1
20200706223030 92 227 0.0 1.0 0.00 0.00 0.00 59 1025.7
20200706222527 92 216 1.0 1.0 0.00 0.00 0.00 59 1025.4
20200706222025 93 214 1.0 1.0 0.00 0.00 0.00 59 1025.4
20200706221519 93 71 1.0 2.0 0.00 0.00 0.00 59 1025.0
20200706221019 93 192 2.0 5.0 0.00 0.00 0.00 59 1025.4
20200706220518 93 171 1.0 2.0 0.00 0.00 0.00 58 1025.4
20200706220017 93 236 1.0 1.0 0.00 0.00 0.00 58 1025.4
20200706215515 93 234 0.0 3.0 0.00 0.00 0.00 57 1026.1
20200706215015 93 211 3.0 5.0 0.00 0.00 0.00 58 1026.1
20200706214514 94 208 1.0 2.0 0.00 0.00 0.00 56 1026.1
20200706214009 94 228 1.0 1.0 0.00 0.00 0.00 56 1026.1
20200706213503 94 239 1.0 2.0 0.00 0.00 0.00 56 1026.1
20200706213003 94 237 1.0 2.0 0.00 0.00 0.00 57 1026.4
20200706212500 94 194 2.0 5.0 0.00 0.00 0.00 57 1026.1
20200706211958 94 238 1.0 3.0 0.00 0.00 0.00 56 1026.4
20200706211455 94 229 1.0 2.0 0.00 0.00 0.00 57 1026.1
20200706210953 93 234 0.0 1.0 0.00 0.00 0.00 58 1026.4
20200706210447 94 233 0.0 1.0 0.00 0.00 0.00 57 1026.1
20200706205944 94 240 1.0 2.0 0.00 0.00 0.00 57 1026.1
20200706205440 93 228 1.0 1.0 0.00 0.00 0.00 55 1026.1
20200706204936 93 234 1.0 2.0 0.00 0.00 0.00 56 1026.1
20200706204430 94 222 1.0 3.0 0.00 0.00 0.00 55 1026.1
20200706203930 94 220 0.0 2.0 0.00 0.00 0.00 54 1026.1
20200706203428 94 214 1.0 2.0 0.00 0.00 0.00 54 1026.1
20200706202926 94 228 1.0 3.0 0.00 0.00 0.00 55 1026.1
20200706202426 95 238 0.0 1.0 0.00 0.00 0.00 55 1026.1
20200706201923 94 227 0.0 2.0 0.00 0.00 0.00 55 1026.4
20200706201419 94 230 0.0 2.0 0.00 0.00 0.00 56 1026.4
20200706200916 94 183 3.0 7.0 0.00 0.00 0.00 54 1026.1
20200706200411 95 226 3.0 6.0 0.00 0.00 0.00 55 1026.4
20200706195907 94 235 1.0 3.0 0.00 0.00 0.00 56 1026.1
20200706195405 94 158 1.0 5.0 0.00 0.00 0.00 56 1026.4
20200706194905 94 216 1.0 2.0 0.00 0.00 0.00 57 1026.4
20200706194403 94 122 1.0 1.0 0.00 0.00 0.00 58 1026.4
20200706193902 94 217 1.0 2.0 0.00 0.00 0.00 58 1026.8
20200706193359 93 212 1.0 7.0 0.00 0.00 0.00 59 1026.4
20200706192856 93 228 1.0 2.0 0.00 0.00 0.00 59 1026.4
20200706192352 93 204 1.0 1.0 0.00 0.00 0.00 58 1026.4
20200706191849 93 222 3.0 5.0 0.00 0.00 0.00 60 1026.8
20200706191346 92 154 3.0 5.0 0.00 0.00 0.00 59 1026.8
20200706190841 93 242 0.0 2.0 0.00 0.00 0.00 59 1026.8
20200706190337 94 225 1.0 2.0 0.00 0.00 0.00 59 1026.8
20200706185834 93 232 0.0 5.0 0.00 0.00 0.00 60 1027.1
20200706185334 93 164 2.0 5.0 0.00 0.00 0.00 59 1027.1
20200706184831 93 229 1.0 2.0 0.00 0.00 0.00 60 1027.1
20200706184327 93 231 1.0 3.0 0.00 0.00 0.00 59 1027.1
20200706183826 93 231 1.0 3.0 0.00 0.00 0.00 61 1027.1
20200706183322 93 209 1.0 1.0 0.00 0.00 0.00 59 1027.4
20200706182822 94 196 2.0 3.0 0.00 0.00 0.00 59 1027.4
20200706182320 94 212 0.0 2.0 0.00 0.00 0.00 59 1027.4
20200706181815 94 185 3.0 3.0 0.00 0.00 0.00 58 1027.4
20200706181312 93 237 1.0 2.0 0.00 0.00 0.00 60 1027.4
20200706180807 92 210 1.0 2.0 0.00 0.00 0.00 62 1027.8
20200706180303 92 205 2.0 2.0 0.00 0.00 0.00 60 1027.4
20200706175801 93 174 4.0 7.0 0.00 0.00 0.00 61 1027.8
20200706175301 92 239 2.0 3.0 0.00 0.00 0.00 63 1027.4
20200706174800 92 203 1.0 3.0 0.00 0.00 0.00 64 1027.8
20200706174255 91 200 1.0 2.0 0.00 0.00 0.00 64 1027.8
20200706173750 91 224 1.0 3.0 0.00 0.00 0.00 65 1027.8
20200706173245 91 176 1.0 6.0 0.00 0.00 0.00 65 1027.8
20200706172744 91 214 2.0 5.0 0.00 0.00 0.00 65 1027.8
20200706172241 91 234 0.0 1.0 0.00 0.00 0.00 65 1028.1
20200706171740 90 217 1.0 2.0 0.00 0.00 0.00 67 1028.5
20200706171239 90 156 3.0 5.0 0.00 0.00 0.00 65 1028.1
20200706170736 90 222 0.0 2.0 0.00 0.00 0.00 68 1028.5
20200706170230 90 244 1.0 1.0 0.00 0.00 0.00 67 1028.5
20200706165727 90 221 0.0 1.0 0.00 0.00 0.00 67 1028.5
20200706165227 91 218 1.0 2.0 0.00 0.00 0.00 65 1028.5
20200706164724 90 231 1.0 1.0 0.00 0.00 0.00 64 1028.1
20200706164221 89 222 1.0 2.0 0.00 0.00 0.00 69 1028.1
20200706163711 89 186 1.0 3.0 0.00 0.00 0.00 67 1028.1
20200706163210 89 201 0.0 3.0 0.00 0.00 0.00 68 1028.5
20200706162708 89 226 0.0 2.0 0.00 0.00 0.00 68 1028.1
20200706162205 88 223 2.0 3.0 0.00 0.00 0.00 69 1028.5
20200706161702 87 231 1.0 2.0 0.00 0.00 0.00 71 1028.5
20200706161200 87 214 0.0 2.0 0.00 0.00 0.00 70 1028.5
20200706160658 88 240 1.0 2.0 0.00 0.00 0.00 69 1028.5
20200706160157 87 232 0.0 1.0 0.00 0.00 0.00 70 1028.1
20200706155653 86 213 1.0 2.0 0.00 0.00 0.00 72 1028.1
20200706155150 86 218 1.0 2.0 0.00 0.00 0.00 72 1028.1
20200706154646 86 224 1.0 1.0 0.00 0.00 0.00 73 1028.5
20200706154142 87 235 0.0 1.0 0.00 0.00 0.00 73 1028.5
20200706153639 87 228 0.0 2.0 0.00 0.00 0.00 71 1028.1
20200706153134 87 229 0.0 1.0 0.00 0.00 0.00 72 1028.1
20200706152633 88 230 1.0 1.0 0.00 0.00 0.00 70 1028.5
20200706152131 87 236 0.0 1.0 0.00 0.00 0.00 71 1028.5
20200706151628 87 292 2.0 2.0 0.00 0.00 0.00 72 1028.1
20200706151124 87 221 0.0 3.0 0.00 0.00 0.00 70 1028.5
20200706150623 88 239 0.0 1.0 0.00 0.00 0.00 70 1028.1
20200706150119 88 220 0.0 1.0 0.00 0.00 0.00 68 1028.5
20200706145615 87 235 0.0 1.0 0.00 0.00 0.00 71 1028.5
20200706145112 87 228 0.0 1.0 0.00 0.00 0.00 71 1028.8
20200706144609 87 228 0.0 1.0 0.00 0.00 0.00 71 1028.5
20200706144107 87 222 0.0 0.0 0.00 0.00 0.00 70 1028.5
20200706143605 86 231 0.0 2.0 0.00 0.00 0.00 70 1028.5
20200706143102 87 241 3.0 3.0 0.00 0.00 0.00 69 1028.5
20200706142558 87 233 1.0 3.0 0.00 0.00 0.00 69 1028.5
20200706142057 87 228 0.0 2.0 0.00 0.00 0.00 67 1028.8
20200706141555 87 218 0.0 1.0 0.00 0.00 0.00 68 1028.5
20200706141049 86 207 1.0 1.0 0.00 0.00 0.00 69 1028.5
20200706140546 86 229 0.0 1.0 0.00 0.00 0.00 71 1028.5
20200706140044 85 256 0.0 0.0 0.00 0.00 0.00 72 1028.5
20200706135540 84 222 0.0 2.0 0.00 0.00 0.00 72 1028.1
20200706135040 84 230 0.0 2.0 0.00 0.00 0.00 73 1028.1
20200706134537 84 231 0.0 1.0 0.00 0.00 0.00 73 1028.1
20200706134032 84 227 0.0 1.0 0.00 0.00 0.00 73 1028.1
20200706133529 84 233 0.0 1.0 0.00 0.00 0.00 73 1028.1
20200706133025 84 209 0.0 1.0 0.00 0.00 0.00 74 1028.1
20200706132521 84 224 0.0 2.0 0.00 0.00 0.00 74 1028.1
20200706132019 85 230 0.0 0.0 0.00 0.00 0.00 72 1027.8
20200706131515 86 312 0.0 2.0 0.00 0.00 0.00 70 1028.1
20200706131015 84 235 0.0 2.0 0.00 0.00 0.00 72 1028.1
20200706130515 83 233 0.0 2.0 0.00 0.00 0.00 74 1028.5
20200706130011 82 233 0.0 2.0 0.00 0.00 0.00 76 1028.1
20200706125511 81 226 0.0 0.0 0.00 0.00 0.00 78 1028.5
20200706125009 81 237 0.0 1.0 0.00 0.00 0.00 77 1028.5
20200706124507 81 233 0.0 1.0 0.00 0.00 0.00 77 1028.1
20200706124005 82 240 0.0 0.0 0.00 0.00 0.00 76 1028.1
20200706123503 83 251 1.0 2.0 0.00 0.00 0.00 74 1028.5
20200706123002 83 230 0.0 0.0 0.00 0.00 0.00 75 1028.1
20200706122501 83 230 0.0 2.0 0.00 0.00 0.00 76 1028.1
20200706121957 82 243 0.0 1.0 0.00 0.00 0.00 77 1027.8
20200706121457 82 234 0.0 1.0 0.00 0.00 0.00 78 1028.1
20200706120952 81 226 0.0 1.0 0.00 0.00 0.00 78 1028.1
20200706120449 81 236 1.0 2.0 0.00 0.00 0.00 79 1027.8
20200706115945 81 214 0.0 2.0 0.00 0.00 0.00 79 1027.8
20200706115440 81 233 1.0 2.0 0.00 0.00 0.00 79 1027.8
20200706114937 81 226 0.0 1.0 0.00 0.00 0.00 80 1027.8
20200706114435 80 227 0.0 0.0 0.00 0.00 0.00 80 1027.8
20200706113930 80 226 0.0 0.0 0.00 0.00 0.00 81 1027.4
20200706113431 79 224 0.0 0.0 0.00 0.00 0.00 82 1027.8
20200706112930 79 234 0.0 0.0 0.00 0.00 0.00 82 1027.4
20200706112427 78 231 0.0 0.0 0.00 0.00 0.00 84 1027.4
20200706111922 78 226 0.0 0.0 0.00 0.00 0.00 85 1027.8
20200706111421 77 227 0.0 0.0 0.00 0.00 0.00 86 1027.4
20200706110915 77 227 0.0 0.0 0.00 0.00 0.00 87 1027.4
20200706110411 76 231 0.0 0.0 0.00 0.00 0.00 87 1027.4
20200706105910 76 128 0.0 0.0 0.00 0.00 0.00 87 1027.1
20200706105410 76 232 0.0 0.0 0.00 0.00 0.00 87 1027.1
20200706104904 76 232 0.0 0.0 0.00 0.00 0.00 87 1027.1
20200706104359 76 231 0.0 0.0 0.00 0.00 0.00 87 1027.1
20200706103856 76 230 0.0 0.0 0.00 0.00 0.00 87 1026.8
20200706103353 76 229 0.0 0.0 0.00 0.00 0.00 87 1027.1
20200706102852 75 228 0.0 0.0 0.00 0.00 0.00 87 1027.1
20200706102347 75 228 0.0 0.0 0.00 0.00 0.00 87 1027.1
20200706101842 75 230 0.0 0.0 0.00 0.00 0.00 87 1027.1
20200706101338 75 230 0.0 0.0 0.00 0.00 0.00 87 1027.1
20200706100838 75 228 0.0 0.0 0.00 0.00 0.00 87 1026.8
20200706100337 75 221 0.0 0.0 0.00 0.00 0.00 87 1026.8
20200706095833 75 230 0.0 0.0 0.00 0.00 0.00 88 1027.1
20200706095328 75 235 0.0 0.0 0.00 0.00 0.00 88 1027.1
20200706094827 74 230 0.0 0.0 0.00 0.00 0.00 88 1026.8
20200706094323 74 228 0.0 0.0 0.00 0.00 0.00 89 1027.1
20200706093820 75 230 0.0 0.0 0.00 0.00 0.00 88 1026.8
20200706093319 74 227 0.0 0.0 0.00 0.00 0.00 89 1026.8
20200706092816 75 231 0.0 0.0 0.00 0.00 0.00 89 1026.8
20200706092311 75 233 0.0 0.0 0.00 0.00 0.00 88 1026.8
20200706091806 75 239 0.0 0.0 0.00 0.00 0.00 88 1026.8
20200706091305 75 228 0.0 0.0 0.00 0.00 0.00 88 1026.8
20200706090805 75 228 0.0 0.0 0.00 0.00 0.00 88 1026.8
20200706090301 75 227 0.0 0.0 0.00 0.00 0.00 88 1026.8
20200706085756 75 229 0.0 0.0 0.00 0.00 0.00 88 1026.8
20200706085254 75 228 0.0 0.0 0.00 0.00 0.00 88 1026.4
20200706084752 75 228 0.0 0.0 0.00 0.00 0.00 88 1026.4
20200706084249 75 228 0.0 0.0 0.00 0.00 0.00 88 1026.4
20200706083747 75 229 0.0 0.0 0.00 0.00 0.00 88 1026.4
20200706083246 75 228 0.0 0.0 0.00 0.00 0.00 88 1026.4
20200706082742 75 229 0.0 0.0 0.00 0.00 0.00 88 1026.4
20200706082242 75 230 0.0 0.0 0.00 0.00 0.00 87 1026.4
20200706081736 75 230 0.0 0.0 0.00 0.00 0.00 87 1026.4
20200706081233 76 231 0.0 0.0 0.00 0.00 0.00 86 1026.4
20200706080732 76 230 0.0 0.0 0.00 0.00 0.00 86 1026.1
20200706080227 76 227 0.0 0.0 0.00 0.00 0.00 85 1026.4
20200706075723 76 230 0.0 0.0 0.00 0.00 0.00 86 1026.1
20200706075222 76 231 0.0 0.0 0.00 0.00 0.00 85 1026.1
20200706074721 76 231 0.0 0.0 0.00 0.00 0.00 85 1026.1
20200706074217 76 232 0.0 0.0 0.00 0.00 0.00 85 1025.7
20200706073710 76 231 0.0 0.0 0.00 0.00 0.00 85 1026.4
20200706073207 76 228 0.0 0.0 0.00 0.00 0.00 85 1026.1
20200706072707 76 232 0.0 0.0 0.00 0.00 0.00 84 1026.1
20200706072202 76 229 0.0 0.0 0.00 0.00 0.00 84 1026.1
20200706071659 77 230 0.0 0.0 0.00 0.00 0.00 84 1026.4
20200706071159 77 231 0.0 0.0 0.00 0.00 0.00 84 1026.1
20200706070657 77 232 0.0 0.0 0.00 0.00 0.00 83 1026.1
20200706070157 77 229 0.0 0.0 0.00 0.00 0.00 83 1026.4
20200706065656 77 230 0.0 0.0 0.00 0.00 0.00 83 1026.4
20200706065152 77 228 0.0 0.0 0.00 0.00 0.00 83 1026.1
20200706064652 77 238 0.0 0.0 0.00 0.00 0.00 82 1026.1
20200706064150 77 229 0.0 0.0 0.00 0.00 0.00 82 1026.1
20200706063650 77 228 0.0 0.0 0.00 0.00 0.00 82 1026.1
20200706063146 77 234 0.0 0.0 0.00 0.00 0.00 82 1026.4
20200706062641 77 228 0.0 0.0 0.00 0.00 0.00 82 1026.4
20200706062141 77 227 0.0 0.0 0.00 0.00 0.00 82 1026.8
20200706061638 77 226 0.0 0.0 0.00 0.00 0.00 82 1026.1
20200706061131 77 230 0.0 0.0 0.00 0.00 0.00 83 1026.4
20200706060629 77 227 0.0 0.0 0.00 0.00 0.00 82 1026.4
20200706060126 77 228 0.0 0.0 0.00 0.00 0.00 83 1026.4
20200706055623 77 229 0.0 0.0 0.00 0.00 0.00 83 1026.4
20200706055119 77 230 0.0 0.0 0.00 0.00 0.00 82 1026.4
20200706054621 77 232 0.0 0.0 0.00 0.00 0.00 82 1026.8
20200706054114 77 231 0.0 0.0 0.00 0.00 0.00 82 1026.4
20200706053609 77 233 0.0 5.0 0.00 0.00 0.00 82 1026.8
20200706053107 77 223 0.0 0.0 0.00 0.00 0.00 83 1026.4
20200706052605 77 226 0.0 0.0 0.00 0.00 0.00 84 1026.8
20200706052102 77 229 0.0 0.0 0.00 0.00 0.00 84 1026.4
20200706051558 77 232 0.0 1.0 0.00 0.00 0.00 84 1026.4
20200706051054 77 225 0.0 0.0 0.00 0.00 0.00 85 1026.8
20200706050549 78 226 0.0 1.0 0.00 0.00 0.00 85 1026.4
20200706050045 77 230 0.0 1.0 0.00 0.00 0.00 86 1026.4
20200706045540 77 220 0.0 0.0 0.00 0.00 0.00 86 1026.8
20200706045037 77 228 0.0 0.0 0.00 0.00 0.00 86 1026.8
20200706044536 77 228 0.0 0.0 0.00 0.00 0.00 86 1026.8
20200706044031 77 228 0.0 0.0 0.00 0.00 0.00 86 1026.8
20200706043529 77 227 0.0 0.0 0.00 0.00 0.00 87 1026.8
20200706043029 77 219 0.0 0.0 0.00 0.00 0.00 87 1026.4
20200706042526 77 230 0.0 0.0 0.00 0.00 0.00 88 1026.8
20200706042022 77 227 0.0 0.0 0.00 0.00 0.00 88 1026.8
20200706041518 77 232 0.0 0.0 0.00 0.00 0.00 88 1026.8
20200706041017 77 232 0.0 0.0 0.00 0.00 0.00 88 1026.4
20200706040513 77 230 0.0 0.0 0.00 0.00 0.00 87 1026.4
20200706040010 77 231 0.0 0.0 0.00 0.00 0.00 87 1026.8
20200706035507 77 234 0.0 0.0 0.00 0.00 0.00 87 1026.4
20200706035001 77 228 0.0 0.0 0.00 0.00 0.00 87 1026.4
20200706034458 77 230 0.0 0.0 0.00 0.00 0.00 87 1026.4
20200706033952 77 234 0.0 0.0 0.00 0.00 0.00 87 1026.8
20200706033452 77 228 0.0 0.0 0.00 0.00 0.00 86 1026.8
20200706032952 77 228 0.0 0.0 0.00 0.00 0.00 86 1026.8
20200706032449 77 228 0.0 0.0 0.00 0.00 0.00 86 1026.8
20200706031945 77 231 0.0 0.0 0.00 0.00 0.00 85 1026.8
20200706031442 77 231 0.0 0.0 0.00 0.00 0.00 85 1026.8
20200706030940 77 233 0.0 0.0 0.00 0.00 0.00 85 1026.4
20200706030440 77 233 0.0 0.0 0.00 0.00 0.00 85 1026.8
20200706025938 77 230 0.0 0.0 0.00 0.00 0.00 84 1026.4